[[{"header":{"parameterUnit":"m.s-1","parameterCategory":1,"la1":30.2992,"la2":30.254,"lo1":-89.0895,"lo2":-89.0443,"dy":0.0025,"dx":0.0025,"nx":19,"ny":19,"refTime":"2026-05-13T21:00:00:Z","depth":0,"parameterNumber":2,"parameterNumberName":"U-component_of_WINDS"},"data":[0,0,0,1.2821,1.2821,1.2867,1.2868,1.2923,1.2924,0,0,0,0,0,0,0,0,0,0,0,1.2804,1.2805,1.282,1.2822,1.2867,1.2868,1.2923,1.2924,0,0,0,0,0,0,0,0,0,0,0,1.2804,1.2805,1.2805,1.2822,1.2867,1.2868,1.2923,1.289,0,0,0,0,0,0,0,0,0,0,1.2845,1.2828,1.2804,1.2805,1.2822,1.2867,1.2868,1.2888,1.2892,1.2901,0,1.2908,0,1.2917,1.2927,1.2927,0,0,0,1.2823,1.2825,1.284,1.2805,1.2822,1.2867,1.2847,1.289,1.2894,1.2906,1.2909,1.2911,1.2918,1.2928,1.2928,1.2974,1.2974,0,0,1.2821,1.2811,1.2837,1.2842,1.2834,1.2846,1.2849,1.2893,1.2896,1.2909,1.2912,1.2919,1.2928,1.2928,1.2974,1.2974,0,0,0,1.2812,1.2809,1.2823,1.284,1.2848,1.2847,1.285,1.2894,1.2899,1.2913,1.2919,1.2928,1.2929,1.2974,1.2974,1.2971,0,0,0,1.2811,1.2804,1.2822,1.2817,1.2847,1.2871,1.285,1.2896,1.2901,1.2919,1.2928,1.2929,1.2974,1.2974,1.2971,1.2971,0,0,0,1.2802,1.2803,1.2809,1.2816,1.2835,1.2871,1.2879,1.2897,1.2905,1.2927,1.2929,1.2974,1.2974,1.2971,1.2971,1.298,0,0,0,1.279,1.2806,1.2809,1.2829,1.2835,1.2869,1.2879,1.2904,1.2923,1.2928,1.2974,1.2974,1.2971,1.2971,1.298,1.2987,1.2988,0,0,1.2804,1.2807,1.2819,1.2824,1.2855,1.2863,1.2893,1.292,1.2931,1.2959,1.2961,1.2971,1.2971,1.298,1.3003,1.3004,0,0,0,1.2821,1.2829,1.284,1.2857,1.2878,1.2896,1.2919,1.2929,1.2954,1.2943,1.2978,1.2978,1.2984,1.2987,1.2989,1.2995,1.2976,1.2976,1.2976,1.2826,1.284,1.2861,1.2881,1.2898,1.2922,1.2938,1.2956,1.2964,1.2972,1.298,1.2992,1.2996,1.2997,1.3003,1.2985,1.2985,1.2985,1.2985,1.2847,1.2862,1.2874,1.2899,1.2914,1.2935,1.296,1.2965,1.2988,1.2987,1.2993,1.299,1.2998,1.3004,1.2985,1.2985,1.2985,1.2985,1.2985,1.2852,1.2861,1.2874,1.2902,1.2922,1.2942,1.2963,1.2976,1.2988,1.2994,1.3004,1.3004,1.3006,1.2998,1.2998,1.2998,1.2998,1.2998,1.2998,1.2851,1.2865,1.2882,1.2906,1.292,1.2939,1.2965,1.2979,1.2998,1.3006,1.3006,1.3014,1.2996,1.2992,1.2999,1.2999,1.2999,1.2999,1.2999,1.2867,1.2866,1.289,1.2904,1.2935,1.2954,1.2971,1.2999,1.3012,1.3023,1.303,1.3015,1.3019,1.3018,1.3014,1.3027,1.3027,1.3027,1.3027,1.287,1.2874,1.2902,1.2924,1.2946,1.2964,1.2993,1.3013,1.3035,1.3044,1.3045,1.3041,1.3039,1.3044,1.3042,1.3039,1.3058,1.3058,1.3058,1.288,1.2887,1.2908,1.2929,1.2954,1.2975,1.3003,1.3027,1.3052,1.3059,1.3052,1.3051,1.3045,1.3042,1.3048,1.3046,1.3039,0,0]},{"header":{"parameterUnit":"m.s-1","parameterCategory":1,"la1":30.2992,"la2":30.254,"lo1":-89.0895,"lo2":-89.0443,"dy":0.0025,"dx":0.0025,"nx":19,"ny":19,"refTime":"2026-05-13T21:00:00:Z","depth":0,"parameterNumber":3,"parameterNumberName":"V-component_of_WINDS"},"data":[0,0,0,-1.8086,-1.8089,-1.8234,-1.8235,-1.841,-1.8411,0,0,0,0,0,0,0,0,0,0,0,-1.8036,-1.8037,-1.8086,-1.8089,-1.8234,-1.8235,-1.841,-1.8411,0,0,0,0,0,0,0,0,0,0,0,-1.8036,-1.8037,-1.8038,-1.809,-1.8234,-1.8235,-1.8409,-1.8304,0,0,0,0,0,0,0,0,0,0,-1.8165,-1.8112,-1.8037,-1.8038,-1.8091,-1.8234,-1.8235,-1.8299,-1.831,-1.834,0,-1.8363,0,-1.839,-1.8422,-1.8423,0,0,0,-1.8095,-1.8102,-1.8147,-1.8038,-1.8092,-1.8234,-1.817,-1.8305,-1.8318,-1.8355,-1.8365,-1.8372,-1.8393,-1.8423,-1.8424,-1.8572,-1.8573,0,0,-1.8087,-1.8059,-1.8138,-1.8155,-1.8131,-1.8166,-1.8175,-1.8313,-1.8324,-1.8366,-1.8377,-1.8396,-1.8425,-1.8426,-1.8572,-1.8572,0,0,0,-1.806,-1.8053,-1.8095,-1.8148,-1.8175,-1.817,-1.818,-1.8317,-1.8334,-1.8379,-1.8398,-1.8425,-1.8427,-1.8571,-1.8572,-1.8565,0,0,0,-1.8056,-1.8037,-1.8091,-1.8075,-1.8172,-1.8248,-1.8181,-1.8324,-1.8341,-1.8397,-1.8426,-1.8429,-1.8571,-1.8572,-1.8564,-1.8566,0,0,0,-1.8029,-1.8034,-1.8053,-1.8074,-1.8135,-1.8246,-1.827,-1.8328,-1.8352,-1.8423,-1.8429,-1.8571,-1.8572,-1.8563,-1.8565,-1.8596,0,0,0,-1.7993,-1.8045,-1.8052,-1.8118,-1.8133,-1.824,-1.827,-1.8351,-1.8412,-1.8426,-1.8571,-1.8572,-1.8563,-1.8564,-1.8595,-1.8616,-1.8622,0,0,-1.8042,-1.805,-1.8091,-1.8101,-1.82,-1.8221,-1.8319,-1.8401,-1.8435,-1.8525,-1.8529,-1.8564,-1.8565,-1.8596,-1.8669,-1.8674,0,0,0,-1.8097,-1.8125,-1.8158,-1.8213,-1.8277,-1.8332,-1.8403,-1.8434,-1.8511,-1.8475,-1.8585,-1.8587,-1.8606,-1.8617,-1.8621,-1.8639,-1.8576,-1.8576,-1.8576,-1.8126,-1.8165,-1.8235,-1.8292,-1.8346,-1.8418,-1.8465,-1.8519,-1.8544,-1.8569,-1.8596,-1.8636,-1.8648,-1.8651,-1.867,-1.8611,-1.8611,-1.8611,-1.8611,-1.8201,-1.8248,-1.8279,-1.8358,-1.84,-1.8467,-1.854,-1.8555,-1.8624,-1.8619,-1.8638,-1.8628,-1.8655,-1.8673,-1.8611,-1.8611,-1.8611,-1.8611,-1.8611,-1.8223,-1.8252,-1.8289,-1.8373,-1.8434,-1.8491,-1.8556,-1.8592,-1.8627,-1.8646,-1.8677,-1.8678,-1.8682,-1.8659,-1.8659,-1.8659,-1.8659,-1.8659,-1.8659,-1.8231,-1.8273,-1.8322,-1.8394,-1.8435,-1.8493,-1.8567,-1.8608,-1.8664,-1.8685,-1.8685,-1.8707,-1.8651,-1.8635,-1.8661,-1.8661,-1.8661,-1.8661,-1.866,-1.8291,-1.8284,-1.836,-1.84,-1.8489,-1.8547,-1.8593,-1.8674,-1.8714,-1.8744,-1.8763,-1.8716,-1.8726,-1.8723,-1.871,-1.8754,-1.8754,-1.8754,-1.8754,-1.8309,-1.8318,-1.8404,-1.8466,-1.8532,-1.8581,-1.8667,-1.8726,-1.8785,-1.8812,-1.8811,-1.8798,-1.8794,-1.8806,-1.8802,-1.879,-1.8854,-1.8854,-1.8854,-1.8348,-1.8365,-1.843,-1.8487,-1.8559,-1.862,-1.8702,-1.8773,-1.8839,-1.8859,-1.8834,-1.883,-1.8809,-1.88,-1.8817,-1.8809,-1.8789,0,0]}]]